Regional Weather Roundup
Issued by NWS

Home | Current Version | Previous Version | Text Only | Print | Product List | Glossary On
Versions: 1 2 3 4 5 6 7 8 9 10 11 12 13 14 15 16 17 18 19 20 21 22 23 24 25 26 27 28
000
ASCA42 TJSJ 171410
RWRPR
PUERTO RICO/U.S. VIRGIN ISLANDS HOURLY WEATHER ROUNDUP
NATIONAL WEATHER SERVICE SAN JUAN PR
1000 AM AST SUN DEC 17 2017

PRZ001>002-007>008-010-171500-
PUERTO RICO

CITY           SKY/WX    TMP DP  RH WIND       PRES   REMARKS
SAN JUAN LMM   PTSUNNY   82  73  74 NE16G24   30.11R
AGUADILLA      MOSUNNY   81  70  69 E21       30.13R
$$

VIZ001>002-171500-
U.S. VIRGIN ISLANDS

CITY           SKY/WX    TMP DP  RH WIND       PRES   REMARKS
CHARLOTTE AMA  MOSUNNY   84  73  70 NE17G24   30.08R HX  91
CHRISTIANSTED  PTSUNNY   84  72  65 NE18G25   30.09R
$$

HOURLY WEATHER ROUNDUP FOR THE NEWS MEDIA

CITY           SKY/WX    TMP DP  RH WIND       PRES   REMARKS
ORLANDO        SUNNY     64  58  80 N6        30.28R
NEW YORK       PTSUNNY   33  24  69 E5        30.31R WCI  29
NEWARK         CLOUDY    34  22  61 CALM      30.30R
CHICAGO        CLOUDY    36  33  89 NE6       30.06R FOG     WCI  31
HARTFORD       SUNNY     22   9  57 NW7       30.28R WCI  13
BOSTON         MOSUNNY   22   6  50 W12       30.28R WCI  10
DALLAS         DRIZZLE   45  44  97 S8        30.08R FOG
PHILADELPHIA   PTSUNNY   35  26  69 E6        30.29R WCI  30
LOS ANGELES    CLEAR     57  22  25 VRB7      29.86R
WASHINGTON DC  CLOUDY    32  27  81 CALM      30.27R



USA.gov is the U.S. government's official web portal to all federal, state and local government web resources and services.